Regional Weather Roundup
Issued by NWS Upton, NY

Current Version | Previous Version | Text Only | Print | Product List | Glossary On
Versions: 1 2 3 4 5 6 7 8 9 10 11 12 13 14 15 16 17 18 19 20 21 22 23 24 25 26 27 28 29 30 31 32 33 34 35 36 37 38 39 40 41 42 43 44 45 46 47 48 49 50
059 ASUS41 KOKX 262004 RWROKX REGIONAL WEATHER ROUNDUP NATIONAL WEATHER SERVICE NEW YORK NY 400 PM EDT TUE JUL 26 2016 NOTE: "FAIR" INDICATES FEW OR NO CLOUDS BELOW 12,000 FEET WITH NO SIGNIFICANT WEATHER AND/OR OBSTRUCTIONS TO VISIBILITY. NYZ071-072-176-178-NJZ106-104-262100- NEW YORK CITY METRO AREA CITY SKY/WX TMP DP RH WIND PRES REMARKS Central Park PTSUNNY 88 63 43 W9 29.89F LaGuardia APRT PTSUNNY 90 64 42 NW8 29.85F HX 91 Kennedy INTL PTSUNNY 90 61 37 NW10G22 29.86F HX 90 Newark/Liberty PTSUNNY 92 62 36 NW13G18 29.86S HX 92 Bronx Bot Gard N/A 90 61 37 NW12 29.87S Wall St Helipt PTCLDY 93 63 36 NW3 29.87S HX 94 Teterboro PTSUNNY 90 61 37 NW10 29.85F HX 90 $$ NYZ177-179-078>081-262100- LONG ISLAND NEW YORK CITY SKY/WX TMP DP RH WIND PRES REMARKS Farmingdale MOSUNNY 92 62 36 MISG 29.86F HX 92 MacArthur/ISP PTSUNNY 91 63 39 W17 29.85F HX 92 Shirley MOSUNNY 92 64 39 W13 29.86S HX 93 Riverhead NOT AVBL Westhampton MOSUNNY 90 61 37 W17G23 29.86F HX 90 Southhampton N/A 90 66 45 N10 29.80F HX 92 Bridgehampton N/A 90 68 48 S2 29.83F HX 93 East Hampton FAIR 87 65 47 W10G16 29.83F Montauk N/A 86 67 52 W10 29.84S $$ NYZ052-065-067-262100- HUDSON VALLEY CITY SKY/WX TMP DP RH WIND PRES REMARKS White Plains SUNNY 88 61 40 NW13 29.88S Newburgh MOSUNNY 88 63 42 NW7G18 29.91 Montgomery SUNNY 88 62 41 NW12 29.89S Poughkeepsie MOSUNNY 90 60 36 NW9 29.87S Albany PTSUNNY 85 61 44 W18 29.88S $$ NJZ001-105-106-008-010-013-015-019>022-104-262100- NEW JERSEY CITY SKY/WX TMP DP RH WIND PRES REMARKS Newark/Liberty PTSUNNY 92 62 36 NW13G18 29.86S HX 92 Teterboro PTSUNNY 90 61 37 NW10 29.85F HX 90 Caldwell SUNNY 90 62 39 NW13 29.88S HX 90 Morristown MOSUNNY 90 63 40 N9G21 29.88F HX 90 Somerville MOSUNNY 89 66 46 VRB5 29.86F HX 91 Linden FAIR 89 64 43 W10 29.89S HX 90 Sussex MOSUNNY 87 63 44 VRB6 29.91F Abdover N/A 88 63 43 NW7 29.91F Trenton MOSUNNY 90 65 43 NW12 29.89F HX 92 Millville CLOUDY 90 68 48 W12 29.91F HX 94 Atlantic City PTSUNNY 89 68 49 W8 29.90F HX 93 Wrightstown CLOUDY 90 66 44 W12 29.86F HX 93 Toms River MOSUNNY 92 68 45 W8 29.89F HX 96 Belmar MOSUNNY 91 68 46 W12 29.90F HX 95 $$ PAZ047>061-062-071-262100- EASTERN PENNSYLVANIA CITY SKY/WX TMP DP RH WIND PRES REMARKS Philadelphia CLOUDY 90 65 43 W13 29.91S HX 92 Allentown MOSUNNY 88 66 48 W8G18 29.91F HX 90 Scranton SUNNY 89 59 36 N10G20 29.94F $$ CTZ002-004>006-009-010-012-RIZ004-006-007-MAZ004-011-015-262100- SOUTHERN NEW ENGLAND IN CT CITY SKY/WX TMP DP RH WIND PRES REMARKS Bradley INTL MOSUNNY 92 58 31 NW9 29.83S HX 91 Hartford MOSUNNY 93 59 31 W12 29.83S HX 92 Danbury MOSUNNY 88 60 38 NW12 29.89S Wtrbury/Oxford MOSUNNY 86 61 42 N10G17 29.91S Bridgeport PTSUNNY 92 64 39 W12G18 29.84F HX 93 Meriden SUNNY 91 59 33 NW14G20 29.84S HX 90 New Haven MOSUNNY 89 64 43 W9 29.84S HX 90 Chester FAIR 88 61 40 NW9G17 29.85S Groton MOSUNNY 84 68 58 SW15 29.80F Wilimantic NOT AVBL IN RI CITY SKY/WX TMP DP RH WIND PRES REMARKS Providence MOSUNNY 91 60 35 W13 29.80S HX 90 Block Island SUNNY 83 69 62 W15G23 29.82F Westerly MOSUNNY 85 65 51 SW9G21 29.82F IN MA CITY SKY/WX TMP DP RH WIND PRES REMARKS Boston MOSUNNY 92 58 31 N14 29.77S HX 91 Worchester MOSUNNY 86 57 37 W15G23 29.85F Westfield MOSUNNY 91 58 32 NW16G22 29.84S HX 90 Provincetown SUNNY 87 64 46 NE8 29.79S Nantucket SUNNY 79 69 71 W17 29.80F $$ ANZ330-335-338-340-345-350-353-355-262100- COASTAL MARINE OBSERVATIONS STATION/POSITION TIME SKY/WX TEMP WIND PRES VSBY WAVE AIR SEA DIR/SP/G HT/PER (UTC) (F) (DEG/KT/KT) (MB) (MI) (FT/S) NY HARB ENTRANCE 1850 79 75 240/ 6/ 6 1011.5 2/ 6 20S FIRE ISLAND 1850 77 76 220/ 8/ 10 1011.4 3/ 6 GREAT SOUTH BAY 1900 85 82 290/ 12/ 16 N/A 23 SSW MONTAUK P 1850 74 71 240/ 8/ 10 1011.3 2/ 6 15 E BARNEGAT LI 1922 78 N/A 3/ 7 HUDSON CANYON 1850 77 78 1012.2 4/ 7 KINGS POINT 1900 83 73 1011.2 EXECUTION ROCKS 1900 82 310/ 6/ 12 N/A CENTRAL LI SOUND 1900 78 74 250/ 12/ 14 N/A 1/ 3 EASTERN LI SOUND 1900 75 69 250/ 14/ 17 N/A ROBBINS REEF 1900 87 300/ 10/ 13 1010.9 $$ >>>>>>>>>>>>>>>>>>>>>>>>>>>> KEY <<<<<<<<<<<<<<<<<<<<<<<<<<< > < > SKY/WX - Sky Condition/Present Weather < > TMP - Temperature in Fahrenheit < > DP - Dew Point in Fahrenheit < > RH - Relative Humidity in Percent < > WIND - Direction (from) and Speed in MPH < > PRES - Mean Sea Level Pressure (inches of Hg) < > WCI - Wind Chill Index < > VSB - VISIBILITY IN MILES < > HX - HEAT INDEX < > TC - TEMPERATURE IN CELSIUS < > VRB - VARIABLE WIND DIRECTION < > < >>>>>>>>>>>>>>>>>>>>>>>>>>>> KEY <<<<<<<<<<<<<<<<<<<<<<<<<<<

USA.gov is the U.S. government's official web portal to all federal, state and local government web resources and services.